This is the latest recevied weather packets stored in our database for station/object DL9GRB-13. If no packets are shown the sender has not sent any weather packets the latest 10 day(s).
| Time | Temp. | Humidity | Pressure | Rain* | Wind** | Luminosity | Snow |
|---|---|---|---|---|---|---|---|
| 1777538286 | 15.56° C | 42% | 1031.5 hPa | 0 mm | - | 529 W/m² | - |
| 1777538106 | 16.11° C | 42% | 1031.5 hPa | 0 mm | - | 523 W/m² | - |
| 1777537746 | 15.56° C | 43% | 1031.5 hPa | 0 mm | - | 512 W/m² | - |
| 1777537566 | 15.56° C | 44% | 1031.6 hPa | 0 mm | - | 505 W/m² | - |
| 1777537386 | 15° C | 44% | 1031.5 hPa | 0 mm | - | 498 W/m² | - |
| 1777537206 | 15° C | 43% | 1031.5 hPa | 0 mm | - | 496 W/m² | - |
| 1777537026 | 15° C | 43% | 1031.6 hPa | 0 mm | - | 486 W/m² | - |
| 1777536846 | 15° C | 44% | 1031.5 hPa | 0 mm | - | 480 W/m² | - |
| 1777536666 | 15° C | 44% | 1031.6 hPa | 0 mm | - | 466 W/m² | - |
| 1777536486 | 15° C | 44% | 1031.7 hPa | 0 mm | - | 453 W/m² | - |
| 1777536306 | 15° C | 44% | 1031.7 hPa | 0 mm | - | 431 W/m² | - |
| 1777536126 | 15° C | 46% | 1031.7 hPa | 0 mm | - | 391 W/m² | - |
| 1777535946 | 15° C | 46% | 1031.5 hPa | 0 mm | - | 262 W/m² | - |
| 1777535766 | 15° C | 44% | 1031.8 hPa | 0 mm | - | 223 W/m² | - |
| 1777535406 | 15° C | 44% | 1031.8 hPa | 0 mm | - | 388 W/m² | - |
| 1777534866 | 15° C | 46% | 1031.6 hPa | 0 mm | - | 411 W/m² | - |
| 1777534686 | 15° C | 47% | 1031.6 hPa | 0 mm | - | 404 W/m² | - |
| 1777534506 | 15° C | 45% | 1031.9 hPa | 0 mm | - | 397 W/m² | - |
| 1777534326 | 14.44° C | 45% | 1031.8 hPa | 0 mm | - | 386 W/m² | - |
| 1777534146 | 14.44° C | 46% | 1031.7 hPa | 0 mm | - | 378 W/m² | - |
| 1777533966 | 14.44° C | 44% | 1031.7 hPa | 0 mm | - | 374 W/m² | - |
| 1777533786 | 14.44° C | 45% | 1031.7 hPa | 0 mm | - | 372 W/m² | - |
| 1777533606 | 14.44° C | 45% | 1031.8 hPa | 0 mm | - | 363 W/m² | - |
| 1777533426 | 14.44° C | 45% | 1031.7 hPa | 0 mm | - | 360 W/m² | - |
| 1777533246 | 14.44° C | 44% | 1031.8 hPa | 0 mm | - | 353 W/m² | - |
* Rain latest hour (hover to see other rain measurements)
** Current wind speed in m/s (hover to see current wind gust speed)